Weather History for Cortez, CO

Change the Weather History Date:

Saturday, August 24, 2013

  Actual Average Record
Temperature  
Mean Temperature 70 °F 68 °F  
Max Temperature 81 °F 84 °F 99 °F (2011)
Min Temperature 59 °F 51 °F 42 °F (2002)
Degree Days  
Heating Degree Days 0 0  
Month to date heating degree days 0 0  
Since 1 June heating degree days 12 78  
Since 1 July heating degree days 0 3  
Cooling Degree Days 5 3  
Month to date cooling degree days 137 128  
Year to date cooling degree days 562 392  
Since 1 June cooling degree days 562 387  
Growing Degree Days 19 (Base 50)    
Moisture  
Dew Point 51 °F    
Average Humidity 58    
Maximum Humidity 80    
Minimum Humidity 35    
Precipitation  
Precipitation 0.12 in 0.04 in 0.12 in (2013)
Month to date precipitation 1.14 1.15  
Year to date precipitation 5.41 8.06  
Sea Level Pressure  
Sea Level Pressure 29.99 in    
Wind  
Wind Speed 4 mph (WSW)    
Max Wind Speed 16 mph    
Max Gust Speed 38 mph    
Visibility 10 miles    
Events Rain , Thunderstorm    
T = Trace of Precipitation, MM = Missing Value Source: NWS Daily Summary

Daily Weather History Graph

Daily Weather History Graph

Search for Another Location

Airport:

Trip Planner

Search our weather history database for the weather conditions in past years. The results will help you decide how hot, cold, wet, or windy it might be!

Date:

Astronomy

Aug. 24, 2013 Rise Set
Actual Time 6:38 AM MDT 7:54 PM MDT
Civil Twilight 6:11 AM MDT 8:21 PM MDT
Nautical Twilight 5:39 AM MDT 8:53 PM MDT
Astronomical Twilight 5:05 AM MDT 9:27 PM MDT
Moon 9:57 PM MDT (8/24) 10:35 AM MDT (8/24)
Length of Visible Light 14h 09m
Length of Day
13h 15m
Waning Gibbous, 84% of the Moon is Illuminated
Aug 24
Waning Gibbous
Aug 28
Last Quarter
Sep 5
New
Sep 12
First Quarter
Sep 19
Full

Hourly Weather History & Observations

Time (MDT) Temp. Dew Point Humidity Pressure Visibility Wind Dir Wind Speed Gust Speed Precip Events Conditions
12:53 AM 63.0 °F 53.1 °F 70% 29.94 in 10.0 mi Calm Calm - 0.00 in   Overcast
1:53 AM 64.0 °F 52.0 °F 65% 29.92 in 10.0 mi East 5.8 mph - N/A   Overcast
2:53 AM 63.0 °F 52.0 °F 67% 29.91 in 10.0 mi Calm Calm - N/A   Overcast
3:53 AM 62.1 °F 53.1 °F 72% 29.94 in 10.0 mi Variable 6.9 mph - N/A   Partly Cloudy
4:53 AM 60.1 °F 53.1 °F 78% 29.94 in 10.0 mi Calm Calm - N/A   Overcast
5:53 AM 59.0 °F 53.1 °F 81% 29.96 in 10.0 mi Calm Calm - N/A   Overcast
6:53 AM 60.1 °F 52.0 °F 75% 30.00 in 10.0 mi Calm Calm - N/A   Mostly Cloudy
7:53 AM 63.0 °F 53.1 °F 70% 30.01 in 10.0 mi Calm Calm - N/A   Overcast
8:53 AM 66.9 °F 51.1 °F 57% 30.03 in 10.0 mi Calm Calm - N/A   Mostly Cloudy
9:53 AM 71.1 °F 50.0 °F 47% 30.03 in 10.0 mi South 5.8 mph - N/A   Clear
10:53 AM 73.9 °F 48.9 °F 41% 30.02 in 10.0 mi WSW 6.9 mph - N/A   Clear
11:53 AM 75.0 °F 48.0 °F 38% 30.02 in 10.0 mi SW 9.2 mph - N/A   Scattered Clouds
12:53 PM 75.0 °F 48.0 °F 38% 30.02 in 10.0 mi SW 11.5 mph - N/A   Clear
1:53 PM 72.0 °F 52.0 °F 49% 30.03 in 10.0 mi WSW 11.5 mph - 0.00 in Rain Light Rain
2:53 PM 73.0 °F 48.9 °F 42% 30.00 in 10.0 mi NNW 4.6 mph - 0.00 in   Mostly Cloudy
3:53 PM 77.0 °F 48.9 °F 37% 29.95 in 10.0 mi Calm Calm - N/A   Clear
4:53 PM 79.0 °F 48.9 °F 35% 29.93 in 10.0 mi North 3.5 mph - N/A   Partly Cloudy
5:53 PM 79.0 °F 48.0 °F 34% 29.92 in 10.0 mi WSW 3.5 mph - N/A   Mostly Cloudy
6:53 PM 77.0 °F 48.9 °F 37% 29.93 in 10.0 mi SSW 6.9 mph - N/A   Scattered Clouds
7:53 PM 72.0 °F 51.1 °F 48% 29.96 in 10.0 mi SE 4.6 mph - N/A   Mostly Cloudy
8:53 PM 69.1 °F 50.0 °F 51% 29.99 in 10.0 mi NNE 5.8 mph - N/A   Mostly Cloudy
9:42 PM 68.0 °F 51.8 °F 56% 30.22 in 10.0 mi NNE 3.5 mph - N/A Thunderstorm Overcast
9:53 PM 68.0 °F 51.1 °F 55% 30.01 in 10.0 mi WSW 4.6 mph - N/A   Overcast
10:53 PM 61.0 °F 57.9 °F 90% 30.06 in 10.0 mi Calm Calm - 0.11 in Rain Light Rain
11:53 PM 61.0 °F 57.0 °F 87% 30.05 in 10.0 mi NE 8.1 mph - 0.00 in   Overcast